Wind_Speed
20 21 20 19 19 18 17 15 14 12 11 10 11 12 13 13 12 11 11 10 9 8 8 7 6 6 5 5 5 5 5 5 6 6 6 6 6 6 6 6 6 6 6 5 5 4 4 4 4 4 4 4 4 4 4 5 6 7 8 8 8 8 8 7 7 8 7 7 7 7 8 8 9 9 8 9 8 8 9 9 10 11 12 13 13
18 19 19 19 20 19 18 16 14 13 13 13 13 13 14 14 13 13 12 11 10 9 8 7 6 4 3 3 2 1 2 2 3 3 4 4 4 4 4 4 5 5 6 5 5 4 4 4 4 3 3 2 2 2 2 2 3 4 5 6 6 7 7 8 9 9 9 9 9 9 9 9 10 10 10 11 11 11 12 12 12 13 14 15 16
19 20 20 20 19 18 17 17 16 15 15 15 14 12 14 15 15 14 13 12 11 10 9 7 6 5 4 3 2 1 1 2 1 0 0 1 3 3 3 3 3 3 4 4 4 4 4 4 4 3 3 2 1 1 1 1 2 3 4 4 5 5 6 7 8 9 9 10 11 12 12 13 12 12 12 13 13 13 14 14 15 15 16 16 17
18 20 21 22 21 18 17 17 17 17 17 16 15 13 14 16 16 16 14 13 12 10 9 9 8 6 5 5 4 4 5 6 6 4 3 3 5 6 7 6 6 5 5 4 4 5 5 5 4 3 3 3 2 1 1 0 1 2 3 2 2 3 5 7 8 9 10 11 12 13 14 16 17 16 15 14 14 14 15 16 16 17 17 17 18
17 19 21 22 22 20 19 17 17 17 18 17 16 15 15 15 16 16 15 14 13 11 11 11 10 8 8 8 8 8 8 9 10 10 9 8 8 10 11 12 11 9 9 8 8 8 7 6 7 6 5 3 2 2 2 2 2 2 3 2 1 3 5 6 8 9 11 12 13 14 16 18 19 19 18 17 18 18 19 19 19 18 18 18 18
15 17 19 19 20 20 19 17 16 17 17 17 17 18 17 15 16 16 16 15 14 13 13 13 12 11 11 11 10 10 11 12 13 15 16 15 15 14 15 15 16 15 14 13 13 12 10 9 10 10 8 7 6 5 5 5 5 5 5 5 5 6 7 7 7 9 11 13 13 14 16 18 19 20 21 21 21 22 23 23 23 21 20 19 19
14 13 13 14 14 14 15 15 15 16 17 16 18 19 18 17 16 16 15 14 14 14 14 14 14 14 14 13 13 12 13 14 16 17 19 19 19 19 18 17 17 17 16 16 16 15 13 12 13 13 13 11 9 9 9 8 7 7 7 7 8 9 9 8 8 10 12 13 13 14 15 17 18 19 21 23 24 26 26 26 26 25 24 23 22
12 10 9 8 8 8 9 12 13 15 16 16 17 19 19 19 18 16 15 15 14 14 14 15 16 16 16 15 15 15 15 17 18 19 19 18 19 20 19 17 17 16 16 16 16 15 14 14 14 15 16 15 13 12 12 11 9 9 10 10 10 11 11 11 12 14 15 14 14 15 16 17 18 19 20 23 25 27 28 28 29 28 26 25 25
10 9 8 6 6 7 8 10 12 13 15 17 19 21 21 21 20 17 15 15 14 14 14 15 15 15 16 16 17 18 19 19 18 18 18 18 18 19 18 17 16 17 17 16 16 16 17 17 18 18 17 16 16 15 15 14 13 13 13 13 13 13 13 13 14 16 16 15 15 16 16 18 20 21 22 23 26 28 30 31 31 30 28 27 26
10 9 8 7 7 8 8 10 12 13 15 18 20 21 20 20 19 16 14 14 14 13 13 14 15 15 16 15 15 14 13 12 11 11 11 12 12 12 12 12 13 13 14 14 14 14 15 16 18 19 19 18 18 17 17 17 16 15 15 16 16 16 15 15 16 17 16 15 15 16 17 19 22 23 23 25 28 30 31 32 31 30 29 27 27
9 9 8 8 9 9 8 9 11 12 14 16 17 17 18 18 18 17 16 16 16 15 14 14 13 12 10 9 7 6 5 5 4 4 4 4 5 6 7 8 9 10 10 11 12 12 13 15 16 19 20 20 19 18 18 18 17 16 17 19 18 18 17 17 17 17 17 16 17 17 18 20 23 24 25 27 29 31 31 31 30 29 29 28 28
8 8 8 8 8 9 10 10 11 13 13 14 13 13 14 14 14 14 13 12 11 11 9 8 7 6 5 5 4 3 3 4 4 4 5 5 5 6 6 6 7 8 9 10 11 11 12 14 15 17 19 19 19 19 16 15 16 18 19 20 20 19 19 18 18 18 17 17 18 18 19 21 23 24 25 26 29 31 31 30 30 29 29 29 28
9 8 7 7 7 7 8 9 10 11 11 10 10 9 9 9 9 8 8 7 7 8 8 7 6 6 5 4 4 4 4 4 4 5 6 7 7 7 8 8 8 9 10 11 11 11 11 12 13 15 16 17 17 17 14 12 15 19 20 21 21 20 19 19 18 18 18 18 18 19 21 23 24 25 26 27 29 30 30 30 29 30 29 29 30
11 10 9 8 7 7 8 9 9 9 9 9 8 8 9 9 9 9 9 9 9 8 8 7 6 5 5 5 5 5 6 6 5 5 6 7 8 8 9 10 10 10 11 11 11 11 11 11 11 13 15 15 16 16 15 12 13 16 19 20 20 20 19 18 17 18 18 18 19 21 24 25 25 26 27 28 29 29 29 29 29 29 30 30 31
10 10 9 8 7 7 7 8 8 9 9 9 9 9 9 10 10 10 9 8 7 7 6 6 6 5 4 4 4 4 4 5 5 6 6 7 8 9 10 11 12 12 11 10 10 10 10 10 10 11 12 14 14 15 13 10 10 13 17 19 19 19 18 17 18 19 19 20 21 23 25 26 26 27 28 29 29 29 29 29 29 30 30 29 29
8 9 10 9 9 7 7 7 7 8 8 8 8 8 8 8 8 8 7 6 6 6 5 5 4 3 3 2 3 4 4 5 5 6 6 7 9 10 11 11 11 10 9 9 9 9 9 9 8 8 9 10 10 9 7 6 8 12 15 17 17 17 17 18 19 19 20 22 23 25 26 27 27 28 28 28 29 29 30 30 29 28 27 26 25
6 7 7 7 8 7 7 6 6 7 7 7 7 8 8 7 7 6 5 5 4 3 3 2 2 3 4 4 5 5 6 7 7 7 7 7 8 9 10 10 9 8 8 8 8 8 7 7 7 6 6 6 4 4 4 6 10 13 15 16 16 16 17 18 19 21 23 25 26 27 28 28 28 28 28 28 29 29 29 27 26 25 25 23 21
3 4 5 5 6 6 6 5 5 5 5 6 7 7 7 7 6 5 4 4 3 3 3 4 5 6 6 7 7 8 8 8 9 9 8 8 8 8 8 8 8 8 8 8 7 6 6 5 6 5 5 4 3 3 6 9 11 13 13 14 15 17 19 21 22 25 26 27 27 27 27 27 27 27 27 28 28 27 27 25 24 25 24 22 20
1 2 2 3 4 6 6 6 5 4 4 4 4 4 5 5 5 5 5 5 5 5 6 6 7 8 9 9 10 10 10 10 10 10 9 8 7 7 6 7 7 8 8 6 5 4 4 5 5 5 5 5 5 7 9 11 12 14 15 16 19 21 22 23 24 25 25 26 26 26 26 27 27 27 27 26 26 25 24 23 23 23 22 21 19
6 7 8 9 9 10 12 13 13 12 11 11 11 11 12 11 10 9 9 8 8 8 8 9 9 9 10 11 11 12 12 11 10 9 8 8 7 6 6 6 7 7 6 4 3 3 3 4 5 5 6 7 8 10 12 13 14 15 16 18 20 21 22 22 23 23 24 25 25 25 25 26 26 26 25 25 24 24 23 23 23 21 19 18 16
12 13 13 12 12 12 13 14 15 14 14 14 14 14 14 13 12 11 10 10 9 9 9 9 10 11 11 12 12 11 11 10 9 8 7 6 6 5 5 6 6 6 5 3 2 3 4 6 7 8 9 10 12 13 14 15 16 16 17 19 20 21 21 23 23 23 24 24 24 24 24 24 24 24 24 23 23 23 23 23 23 22 19 18 17
14 16 16 16 15 15 15 15 15 15 14 14 13 13 12 10 9 9 9 9 9 8 9 9 9 10 10 10 9 9 8 8 7 7 6 6 5 5 6 7 7 6 5 4 5 7 8 9 10 12 12 13 14 15 16 17 18 19 19 19 20 21 22 22 22 22 22 22 23 23 23 23 23 23 23 23 22 23 23 23 23 22 22 21 21
13 14 15 16 16 15 15 15 15 14 14 14 13 13 12 11 10 9 9 9 8 8 9 8 8 8 8 8 8 8 8 8 7 7 7 6 5 6 6 7 7 6 6 7 9 10 11 11 12 13 14 14 15 16 17 17 18 18 19 19 19 20 21 20 20 20 21 21 22 22 22 23 23 23 23 23 23 23 24 24 23 23 23 23 23
14 14 15 15 15 16 16 16 16 16 16 15 14 14 13 13 12 11 10 9 9 10 9 9 9 10 10 10 10 10 10 10 10 9 9 7 7 6 6 6 7 7 8 9 10 10 9 10 11 13 15 15 15 16 16 17 18 18 18 18 18 18 18 19 19 20 21 21 21 22 22 22 23 23 23 23 23 24 24 24 23 23 23 23 23
17 17 17 17 17 17 18 18 18 18 18 17 17 16 16 15 14 13 12 12 12 11 11 11 12 13 12 12 12 12 12 12 12 11 10 9 8 7 6 7 9 9 9 10 10 8 8 10 11 12 13 13 14 15 16 17 17 17 17 17 17 17 18 18 19 20 20 21 21 21 21 22 22 22 22 22 23 23 23 23 23 22 21 20 19
19 19 19 19 19 19 20 20 19 19 20 20 20 19 18 17 16 15 15 15 14 14 14 14 14 14 14 14 14 14 15 14 14 13 11 10 9 8 8 9 10 10 10 10 9 8 8 9 10 10 11 12 14 15 16 15 15 15 15 16 16 17 17 18 19 19 20 20 21 21 21 21 21 21 22 23 23 21 20 20 20 18 16 15 15
21 20 20 21 22 22 22 21 20 20 22 23 23 22 21 21 20 19 18 17 17 17 16 16 15 15 15 15 16 16 16 16 14 13 12 11 10 9 10 10 10 11 11 10 8 6 6 7 8 9 11 12 13 13 13 13 13 14 15 15 15 16 17 17 18 18 19 19 20 20 20 20 20 20 21 21 19 17 17 17 16 15 14 14 15
23 22 21 21 21 22 23 23 21 21 22 24 25 25 24 24 23 22 20 19 18 18 18 17 17 16 17 17 18 18 17 16 15 13 12 11 10 10 10 11 11 12 12 11 8 7 7 8 9 10 11 11 11 11 11 12 13 13 13 14 14 15 15 16 16 16 18 19 19 19 18 18 18 19 19 19 17 15 17 18 16 15 17 17 19
26 25 24 22 21 20 21 21 21 19 20 22 24 25 25 24 23 22 20 19 18 18 18 18 18 18 18 19 19 19 18 16 14 13 13 12 11 10 11 12 12 12 12 10 8 8 9 9 9 9 9 8 9 10 11 11 11 12 12 12 13 13 13 14 14 15 18 19 18 17 17 17 17 18 19 19 18 17 18 19 19 19 21 21 22
27 28 27 25 23 21 19 19 19 18 18 19 20 22 22 22 22 21 20 19 19 19 19 19 19 19 20 20 19 19 19 17 16 15 15 14 12 12 12 13 13 12 11 9 7 7 8 8 8 7 7 8 9 9 10 10 10 10 11 11 11 12 13 13 13 16 18 19 17 16 16 17 18 19 19 20 20 20 20 21 22 22 22 22 23
26 27 28 28 27 25 23 22 21 20 19 19 19 20 21 22 22 22 21 20 20 20 20 21 21 21 21 20 20 20 19 19 18 17 17 16 14 13 14 14 13 12 10 8 7 7 8 7 7 7 7 7 8 8 8 9 8 8 9 10 11 12 13 13 14 17 18 18 17 16 17 17 18 19 20 20 21 22 22 22 22 22 23 23 23
25 25 26 28 28 28 27 26 26 25 24 23 21 20 21 22 23 23 22 21 21 22 22 22 22 22 22 22 22 22 21 21 20 18 17 16 15 14 14 15 13 11 9 8 7 7 7 7 6 6 6 7 7 7 7 7 7 8 9 11 11 11 12 13 15 16 16 16 16 16 16 17 18 19 20 20 21 22 22 22 22 22 22 23 23
25 24 24 25 27 27 27 28 28 28 28 28 27 25 23 22 22 22 22 22 23 23 24 23 23 24 24 23 24 24 24 23 22 20 18 16 15 14 15 15 13 10 9 8 8 8 7 6 5 5 5 5 5 5 6 7 8 8 10 12 12 11 11 13 14 13 13 13 14 15 15 16 17 18 19 19 20 21 22 22 21 21 21 23 24
27 25 24 24 25 26 26 26 26 27 27 27 27 26 25 24 24 24 24 24 24 24 24 25 25 25 25 25 25 26 26 26 24 22 19 17 16 16 16 15 13 11 10 9 8 7 6 4 4 4 4 4 4 5 6 7 8 9 11 13 13 12 13 14 12 11 11 12 13 14 15 15 15 17 18 19 20 20 21 21 20 20 21 23 24
27 26 24 23 24 25 25 24 24 24 24 23 22 22 22 23 24 25 25 26 26 25 25 26 26 26 26 26 27 27 27 26 24 22 20 18 18 17 16 15 13 12 11 11 9 7 4 3 3 3 3 3 4 5 5 6 7 9 11 13 14 14 16 16 14 13 13 14 14 16 17 15 15 16 17 18 19 20 21 20 20 20 21 23 24
26 25 24 23 22 21 22 23 23 22 21 20 19 20 21 22 23 24 25 25 25 25 26 26 27 27 27 26 26 25 24 23 22 21 19 18 18 17 16 14 13 12 12 10 8 5 3 2 2 3 3 4 4 4 5 5 7 9 11 12 14 15 17 18 18 18 17 17 17 18 18 17 17 17 17 18 19 20 20 20 20 20 20 22 23
24 25 24 22 18 16 16 17 20 22 22 20 20 21 21 22 22 23 23 23 24 25 26 26 26 25 24 22 21 19 18 19 20 19 18 17 17 16 13 12 12 12 10 8 6 4 3 2 3 3 4 4 3 3 4 5 7 9 10 11 13 15 16 17 18 19 20 19 18 19 19 19 19 19 19 20 20 20 20 19 19 19 20 21 22
22 22 21 18 15 13 12 12 14 18 19 18 18 19 19 20 21 21 22 23 24 24 24 23 21 20 18 16 15 16 17 19 20 20 20 19 18 16 13 12 11 11 9 7 5 3 2 3 3 4 4 3 2 2 3 5 7 8 9 11 13 14 16 17 19 20 20 20 19 19 21 22 22 22 21 21 20 21 20 19 18 18 20 21 21
20 20 17 14 11 10 9 8 10 12 12 12 13 15 17 18 20 21 22 23 22 21 19 17 16 14 13 13 14 16 19 21 22 22 22 20 18 16 14 13 11 10 8 6 4 2 2 3 4 5 4 3 2 1 3 5 6 7 9 10 12 13 15 17 18 20 21 22 21 21 22 23 23 23 23 21 21 21 20 17 16 17 19 20 21
19 17 15 12 10 9 7 7 7 8 9 10 12 14 16 18 19 20 20 19 17 15 14 14 14 14 14 15 16 18 20 22 22 21 20 19 17 15 14 12 10 8 6 4 2 2 3 4 5 5 4 2 1 1 3 4 6 7 8 9 11 12 14 16 18 19 21 22 23 23 24 25 25 25 24 22 22 21 20 17 15 17 19 19 20
17 15 13 11 9 7 6 7 8 8 9 10 12 13 15 16 16 16 15 13 13 13 13 13 13 13 14 15 16 17 17 19 19 18 17 16 15 14 12 11 9 7 5 3 2 2 3 5 5 5 4 2 1 1 3 4 5 6 7 9 11 12 13 15 17 19 20 22 23 24 24 25 26 25 24 23 22 22 20 17 15 17 18 18 19
15 12 11 8 6 6 7 8 8 7 7 8 9 10 12 12 12 13 13 13 14 14 13 13 14 15 15 16 17 16 15 15 16 16 15 15 14 13 11 9 7 5 4 3 3 4 4 5 5 5 3 2 1 1 3 4 5 6 8 9 11 12 13 15 16 18 20 21 22 23 24 25 26 26 25 24 23 23 20 17 15 17 19 18 18
13 10 7 5 5 6 7 7 7 6 4 3 2 3 4 7 10 11 12 12 13 14 16 18 18 18 17 17 17 16 14 14 14 14 13 13 12 11 9 7 5 4 4 4 5 5 5 4 4 4 3 2 0 2 3 4 5 7 8 10 11 12 13 14 16 17 19 21 22 24 25 26 27 26 25 25 24 23 21 19 17 17 19 19 18
10 7 5 5 5 6 6 6 6 5 3 3 5 7 9 10 12 13 15 15 16 17 18 18 18 18 17 17 17 15 14 13 13 12 10 9 9 8 7 6 5 5 5 6 6 5 5 4 4 4 2 1 1 3 5 5 6 7 9 11 11 12 13 14 15 17 19 20 22 24 26 26 27 27 27 26 25 24 22 20 18 17 18 18 18
9 7 6 6 6 6 6 8 9 7 5 5 7 10 12 14 15 16 17 18 18 18 17 17 16 17 16 16 15 14 13 12 10 9 8 8 7 7 7 6 5 5 6 7 6 5 5 4 4 3 2 1 2 4 6 6 6 8 10 11 11 12 13 14 15 16 18 20 22 24 26 26 26 27 27 27 26 24 23 20 18 17 17 18 17
10 9 8 7 5 5 8 11 10 8 7 7 8 8 10 11 12 13 14 15 15 15 15 15 15 14 13 12 12 11 11 10 9 8 8 8 8 8 7 6 5 6 7 7 6 5 5 3 2 1 1 2 4 6 6 6 6 8 9 10 11 12 13 14 15 16 18 20 21 23 25 25 25 26 27 27 27 25 23 21 18 17 17 17 17
14 12 9 7 7 8 9 10 10 9 10 10 8 8 9 10 10 10 11 11 11 11 11 12 11 11 10 10 9 9 9 8 8 8 8 8 8 7 6 6 7 7 7 6 6 5 3 2 1 1 2 3 5 5 4 4 5 7 8 10 10 12 13 15 15 16 17 19 20 22 23 24 24 25 26 27 27 26 24 22 19 18 18 18 17
13 11 9 9 10 11 11 11 11 11 11 10 9 9 9 9 9 9 9 9 9 10 10 11 11 10 10 9 9 9 9 8 8 8 7 7 6 6 7 7 8 7 6 5 5 4 2 2 2 2 2 3 4 3 3 4 5 7 8 9 10 12 14 15 16 17 17 18 19 21 22 23 23 24 25 26 27 26 25 23 20 19 19 18 17
12 11 12 12 13 13 14 14 14 13 12 12 11 11 10 10 10 10 10 10 11 12 12 12 11 11 10 9 9 8 8 7 7 7 7 6 7 7 8 7 7 6 5 4 4 3 2 2 2 2 2 2 2 2 3 4 5 6 7 8 9 11 13 16 17 17 17 18 18 20 21 22 23 23 24 25 25 25 25 24 21 20 19 18 16
12 13 13 13 13 13 14 15 15 15 15 14 14 14 14 14 13 13 13 12 12 12 11 10 9 9 8 8 7 7 6 6 6 6 6 6 7 6 6 6 5 4 3 3 4 3 2 2 2 1 1 2 2 3 4 5 6 7 7 8 9 10 12 14 16 17 18 18 18 19 20 21 22 22 23 24 24 24 24 23 22 20 20 18 16
12 12 12 13 12 12 12 13 14 15 15 15 14 14 13 13 13 12 12 11 10 9 8 7 6 6 5 5 5 5 5 5 5 5 5 5 5 4 4 4 3 3 4 5 4 3 3 2 1 1 1 1 2 3 4 5 6 7 7 8 8 9 11 12 14 16 18 18 18 18 19 20 22 22 22 23 23 23 23 22 21 20 19 17 15
Wind_Direction
229 232 233 229 232 239 236 225 218 215 212 202 196 192 186 186 190 184 175 172 168 159 151 143 136 128 120 112 104 99 92 86 83 77 72 64 54 45 36 32 27 23 21 19 18 24 25 25 25 26 34 43 43 43 54 68 78 88 95 100 104 101 95 90 82 70 51 30 19 8 358 352 349 345 341 338 336 336 335 333 331 327 324 321 318
223 223 226 230 236 241 237 227 219 220 215 201 193 191 187 187 192 193 188 182 175 166 158 153 151 146 141 136 121 98 80 68 71 73 68 59 52 45 34 26 16 9 9 6 2 5 8 7 4 5 8 10 16 21 32 58 73 88 96 95 95 89 77 65 56 49 41 32 24 15 3 352 344 338 335 334 334 334 334 332 328 325 323 322 320
219 224 229 234 239 239 234 229 224 223 216 199 193 194 190 190 194 196 194 189 183 178 174 176 184 191 199 208 223 244 277 299 300 313 21 349 340 332 329 328 326 333 339 337 333 332 336 344 352 359 3 1 352 348 17 60 91 111 114 110 98 69 45 37 35 36 35 29 23 17 11 4 356 346 339 336 334 333 331 328 325 323 321 320 318
217 225 232 238 243 243 240 235 229 224 214 201 201 203 195 193 197 198 198 196 194 194 196 199 204 213 229 242 250 262 279 286 283 271 261 275 291 294 291 284 277 277 280 279 279 280 283 293 302 313 335 356 359 316 253 214 134 139 141 140 113 42 20 17 13 12 13 9 5 1 358 358 356 352 345 339 336 335 332 329 326 322 318 314 312
214 222 230 237 244 247 246 240 230 221 211 204 207 206 197 196 198 200 202 202 205 214 216 214 223 242 252 256 261 268 277 282 278 272 270 277 285 287 285 278 271 269 270 270 268 261 255 262 269 272 277 289 308 288 242 225 201 186 199 215 249 332 342 345 345 347 350 348 346 345 345 347 348 348 346 343 338 336 335 332 328 322 315 310 307
214 219 226 233 239 243 242 235 226 218 212 209 209 205 199 197 198 200 204 208 216 227 230 232 242 251 250 253 263 272 278 280 275 270 272 280 286 288 289 283 275 271 270 271 273 271 267 266 263 261 260 263 271 275 260 240 227 226 234 245 268 293 302 306 314 327 333 331 330 333 335 339 342 342 343 342 338 335 333 331 328 324 319 315 312
213 216 221 225 229 232 233 228 221 218 217 214 211 208 206 203 201 203 209 217 227 234 238 242 248 251 250 253 263 271 278 280 279 277 278 280 281 281 285 285 279 273 268 269 273 273 272 273 267 262 260 256 258 266 266 258 249 247 251 258 268 278 283 287 297 309 314 315 317 322 326 332 337 338 339 339 337 333 331 330 328 325 322 319 316
193 191 192 198 208 217 222 220 217 219 220 216 212 211 212 209 207 210 217 227 234 237 242 247 250 253 254 257 266 274 281 283 282 281 279 277 276 277 280 280 276 272 269 270 274 271 269 273 274 270 264 257 254 257 257 258 259 258 256 261 269 274 278 284 292 297 299 302 307 313 318 324 330 333 335 337 337 333 330 328 326 324 322 320 317
163 165 172 182 200 215 221 220 219 219 218 215 214 216 217 216 215 220 229 235 236 237 242 247 251 256 258 263 272 279 284 284 281 279 276 275 275 276 278 277 273 273 273 273 274 271 269 272 274 273 269 262 257 254 252 253 257 261 263 265 266 269 273 278 283 288 292 297 303 308 314 320 324 327 331 333 333 330 327 325 323 320 319 318 317
159 166 177 190 203 210 216 219 219 219 219 219 221 223 223 221 220 226 235 240 239 240 245 250 256 262 265 270 277 281 284 282 279 278 277 276 275 276 278 277 274 274 273 273 275 275 274 274 272 271 268 262 256 252 251 252 252 257 263 264 262 265 272 277 279 283 289 295 300 305 312 317 320 323 326 329 330 328 324 321 319 317 317 317 317
164 174 185 193 199 205 211 213 212 215 221 224 225 226 227 227 228 234 242 245 246 249 253 255 257 258 259 261 266 274 279 276 274 278 279 275 273 275 279 280 281 282 281 281 282 280 276 271 268 267 266 264 262 258 254 251 249 251 256 260 262 266 272 276 277 282 288 294 298 304 310 314 317 320 323 327 327 324 319 317 316 316 317 317 316
156 168 182 192 199 208 215 218 217 217 218 221 221 223 229 232 232 235 238 238 237 236 233 228 224 223 225 232 244 256 261 260 265 272 278 285 289 292 297 300 300 298 295 293 291 286 280 271 266 265 266 268 269 267 262 254 251 250 252 256 260 264 269 273 276 282 288 293 298 304 310 314 316 317 321 324 322 318 315 315 315 315 316 315 314
143 151 161 173 182 192 199 203 208 208 204 205 206 205 208 209 202 196 195 188 182 182 186 189 195 204 216 235 252 264 267 265 266 269 275 284 291 298 304 305 304 301 297 295 293 292 289 282 275 272 273 272 271 271 270 264 257 253 249 251 255 260 265 270 275 281 288 294 302 308 313 315 315 315 319 320 317 314 314 314 314 314 314 312 312
139 142 145 151 154 159 163 168 177 180 177 179 180 175 174 171 166 166 168 168 170 176 185 197 210 222 238 256 267 275 278 277 278 276 276 281 287 294 298 299 299 298 295 294 294 294 292 289 285 281 279 278 276 275 275 271 262 253 247 248 253 258 264 270 277 286 294 302 309 313 314 314 313 315 317 317 315 314 314 314 314 313 311 310 311
142 142 143 148 155 162 166 168 172 175 175 174 171 167 164 163 165 170 173 179 188 198 208 218 229 238 249 265 279 291 297 297 293 286 279 278 281 285 290 293 296 298 297 294 293 293 295 293 289 285 281 278 277 275 272 267 256 248 245 247 251 257 266 276 285 293 301 306 309 311 311 311 313 315 315 315 315 314 314 313 314 314 313 314 315
151 142 136 135 138 146 160 172 175 173 172 172 174 175 175 177 181 184 189 199 208 216 224 231 238 247 258 283 304 315 319 316 314 306 291 278 275 277 283 290 297 301 300 298 297 298 300 298 292 287 283 279 275 273 267 254 243 241 243 247 254 264 276 286 293 300 305 307 309 310 310 311 312 313 314 315 315 315 315 316 316 316 315 315 315
172 168 159 149 141 135 137 153 167 171 173 175 178 182 184 186 189 189 192 201 206 214 233 253 276 293 305 314 318 321 319 316 315 312 302 286 276 276 280 287 295 298 299 301 304 303 299 294 289 286 288 290 290 280 257 242 241 243 247 256 268 279 288 294 299 303 304 305 306 307 308 310 312 313 314 314 313 313 314 316 315 314 313 312 310
163 170 169 171 169 154 139 137 145 152 159 170 179 188 192 194 198 205 214 227 238 248 265 282 293 302 308 311 314 314 314 312 311 307 301 291 280 275 276 281 285 288 294 300 304 304 303 304 309 317 319 317 306 272 248 242 246 254 265 277 287 293 297 299 300 301 301 302 304 306 309 311 312 313 313 312 311 312 312 313 313 312 312 310 306
167 190 202 231 229 215 215 225 225 212 212 219 221 229 232 227 228 240 251 259 265 270 276 282 288 295 300 304 308 310 311 311 310 305 297 287 279 274 271 270 270 275 285 297 308 319 330 337 340 340 330 307 285 272 265 263 266 274 284 292 296 297 298 298 298 299 300 303 306 308 310 310 310 310 309 309 309 310 311 312 311 310 307 304 303
235 247 256 264 263 257 253 253 252 253 258 264 269 274 273 270 271 273 271 271 274 277 281 286 292 298 302 306 309 311 313 313 309 302 293 282 275 268 260 258 262 270 281 295 319 338 341 334 322 311 301 289 279 275 275 276 278 281 286 290 292 294 295 295 296 298 301 304 306 307 307 307 306 307 308 309 310 311 311 311 309 306 302 299 297
252 252 254 252 249 249 250 252 255 260 263 265 268 269 267 266 268 268 266 268 271 274 280 287 293 299 303 306 308 309 310 308 302 295 286 278 269 255 243 245 256 271 282 282 281 297 301 296 289 284 283 282 280 279 280 280 281 283 285 286 288 291 294 296 298 301 303 304 305 305 305 306 306 308 309 310 311 312 310 307 305 304 301 297 295
257 252 251 247 244 244 246 248 252 256 260 260 259 257 255 255 260 263 264 265 266 272 282 289 296 303 308 308 305 302 299 297 295 290 282 275 263 243 234 235 244 258 269 270 274 284 286 282 278 276 277 277 278 280 281 281 281 282 283 285 288 291 294 297 300 303 304 304 305 306 307 308 309 311 311 311 312 311 309 307 307 306 304 301 299
259 254 251 249 246 243 242 243 246 250 254 255 253 251 250 252 258 264 264 262 266 278 287 291 300 312 318 314 306 299 294 292 296 300 296 287 272 253 240 232 234 245 261 276 287 291 286 277 273 272 275 276 277 279 280 281 281 281 283 287 290 293 296 299 302 304 304 305 307 309 310 311 312 314 314 315 316 314 312 311 311 310 308 304 301
262 258 255 252 248 242 238 240 244 248 250 250 249 248 247 249 255 259 259 260 269 281 284 286 296 306 311 312 308 302 295 293 296 301 302 297 290 279 257 234 230 245 270 290 299 296 282 270 269 273 277 279 280 280 281 283 284 287 290 293 296 299 302 304 305 306 307 308 309 311 313 315 316 318 319 319 319 318 317 316 316 315 313 309 307
263 260 257 254 251 245 241 241 244 246 247 246 246 247 246 248 251 252 254 257 263 271 275 279 289 296 299 302 302 298 293 291 292 294 294 292 289 281 260 245 248 261 282 299 304 298 279 266 267 274 280 283 284 283 283 286 290 292 295 298 302 304 306 306 307 307 309 310 312 315 318 319 320 322 322 323 324 324 322 321 322 322 319 315 313
266 264 260 256 252 248 244 244 245 246 247 247 247 247 248 249 250 250 252 255 259 264 269 274 281 286 289 292 293 290 288 287 287 286 284 284 282 271 256 255 262 273 286 293 294 293 283 271 269 275 280 282 283 283 284 288 292 295 299 303 305 307 306 307 309 310 313 316 318 320 322 323 325 326 328 330 331 328 325 325 326 326 323 318 314
264 264 262 259 257 252 248 245 244 244 245 247 248 248 248 247 248 250 252 255 259 262 265 269 273 278 281 283 283 283 282 281 280 277 277 279 277 265 254 254 263 275 281 281 279 284 289 279 272 274 277 278 280 283 286 291 296 300 304 306 306 306 307 309 313 318 322 324 325 326 328 330 332 333 334 335 333 330 330 331 329 326 324 319 316
259 259 258 257 257 254 251 247 244 244 245 246 246 247 246 246 247 249 251 254 256 258 260 263 267 272 276 278 277 276 274 273 272 273 275 276 272 262 251 250 257 269 274 271 263 263 271 271 267 269 273 276 281 287 292 297 301 303 304 305 307 309 313 319 324 329 332 334 334 334 335 337 338 337 337 338 336 334 336 337 332 328 328 327 323
256 253 252 252 252 252 250 246 243 242 243 243 242 243 244 245 246 248 249 250 251 253 255 259 264 269 272 273 271 268 267 266 268 270 271 269 263 255 247 245 252 264 268 262 255 256 261 262 263 265 269 275 284 291 294 298 300 301 303 308 313 319 326 332 336 338 340 342 342 341 339 339 339 339 340 342 340 338 338 337 336 334 333 331 327
255 251 249 248 248 248 247 244 240 236 235 237 239 240 242 243 243 244 246 247 247 250 254 259 264 267 267 266 264 262 262 263 263 265 267 265 258 249 242 243 251 261 260 252 249 254 253 250 250 256 265 277 285 288 291 294 298 304 312 318 324 332 339 341 342 343 345 346 345 342 341 340 339 339 341 342 341 339 336 336 337 336 333 330 326
258 254 251 248 246 246 247 245 243 239 235 234 237 241 243 245 246 246 246 247 248 250 253 256 259 261 261 260 258 258 259 260 262 265 267 263 255 246 241 242 248 252 249 243 244 244 237 233 241 254 267 277 281 283 288 297 304 315 327 334 338 344 347 345 343 345 346 345 345 343 343 342 339 337 339 339 338 336 334 335 337 335 331 328 325
260 258 254 251 249 247 247 246 246 246 245 243 244 246 246 248 250 249 248 248 249 250 251 254 255 257 257 256 256 257 259 260 262 264 263 258 250 243 238 238 241 240 233 226 226 226 222 223 236 253 263 268 275 285 298 312 323 332 342 348 350 350 349 344 342 344 345 344 343 343 344 343 338 335 336 337 335 333 333 335 336 333 329 327 326
255 257 255 254 253 251 250 249 248 249 250 251 251 252 251 250 252 252 251 250 249 250 251 254 256 257 257 256 256 257 257 258 260 260 255 249 243 237 232 231 229 224 217 212 209 206 208 218 232 248 259 264 280 305 321 332 341 347 355 359 358 355 349 344 342 344 344 341 341 342 342 341 337 333 335 336 335 335 336 336 334 331 330 329 327
247 250 253 255 256 255 253 253 252 251 250 249 249 249 249 247 247 247 249 249 250 250 253 256 258 260 259 258 258 258 257 258 258 253 245 238 233 229 226 222 213 203 198 199 197 194 197 212 230 248 260 269 300 329 339 347 355 4 10 10 6 1 355 350 346 344 342 341 343 344 343 339 336 334 336 338 339 338 337 335 334 332 331 330 327
242 243 248 254 258 260 258 256 255 252 249 246 243 242 242 241 240 240 243 247 250 253 257 260 261 262 261 260 259 259 257 255 252 244 235 229 223 219 215 211 204 197 192 191 191 191 193 211 245 265 278 294 320 339 351 1 11 20 22 17 12 9 6 2 357 351 348 347 348 350 348 344 339 337 338 340 341 339 337 335 334 333 332 329 327
238 237 242 251 259 264 263 259 255 251 248 245 243 241 239 238 241 244 246 251 255 258 261 262 262 262 262 261 260 257 251 246 239 232 225 220 214 209 206 202 198 194 192 190 188 185 188 224 276 294 302 308 323 343 1 17 28 31 25 18 14 13 10 6 2 357 353 351 351 352 353 351 346 343 341 340 340 338 335 334 334 333 332 329 327
233 232 236 246 257 266 269 267 258 249 243 240 241 243 243 244 247 251 254 256 258 259 261 262 263 263 262 259 254 245 235 226 220 214 208 203 199 197 196 193 189 187 185 182 180 181 198 247 289 306 309 312 327 352 15 32 37 34 25 19 17 14 10 7 4 359 356 354 353 353 354 355 354 352 348 342 339 338 336 335 335 335 333 331 329
225 223 228 240 252 260 265 265 252 241 239 239 240 242 245 248 250 253 254 256 257 257 258 260 260 258 252 244 233 222 213 208 201 192 187 186 186 182 178 176 178 179 177 174 176 186 218 260 293 310 313 317 331 1 30 38 36 30 23 20 18 13 8 7 6 3 0 359 357 355 355 355 356 356 352 345 341 339 338 337 337 335 334 333 332
212 214 220 230 237 238 239 240 238 239 245 249 248 245 247 250 250 251 253 255 255 255 254 252 245 235 222 214 209 205 201 195 185 177 175 178 179 175 171 172 175 175 169 167 179 208 246 271 294 311 317 319 328 17 42 40 31 22 18 15 12 8 7 7 6 4 3 2 1 359 358 357 356 356 354 350 346 343 340 339 339 338 336 334 333
198 202 208 213 218 223 229 238 245 252 259 262 259 257 255 254 253 252 253 253 250 245 239 231 220 210 206 206 205 201 192 181 171 169 172 173 172 171 171 175 177 173 167 172 201 242 269 280 295 313 321 313 295 27 41 33 23 14 7 3 2 3 4 5 6 5 4 2 1 1 359 357 356 355 355 353 350 347 345 344 343 341 339 336 334
180 186 192 196 206 223 242 249 250 253 257 261 263 262 258 255 252 249 245 236 225 219 216 211 203 198 197 192 185 180 173 166 161 164 168 169 172 175 177 178 177 176 179 200 241 272 278 281 297 317 321 288 243 25 26 18 7 357 351 350 353 357 359 2 4 4 3 2 1 360 357 355 355 356 357 356 353 350 349 348 346 344 341 338 337
162 173 184 193 208 230 241 241 237 239 250 261 264 260 254 248 239 228 216 208 204 201 193 182 171 165 163 160 156 155 157 157 158 162 168 174 179 182 182 180 183 188 203 236 272 282 276 279 300 317 305 258 236 9 2 348 338 335 337 343 349 351 354 358 1 2 1 1 0 358 356 355 356 357 359 358 355 353 352 353 351 347 342 339 339
154 164 177 197 217 220 221 221 218 221 237 269 275 250 225 210 202 195 188 183 178 170 162 156 152 149 148 147 146 149 154 159 163 168 174 181 183 183 185 193 203 215 233 260 279 278 270 279 299 306 288 250 252 335 316 314 320 325 332 341 345 346 350 354 357 358 359 359 359 358 357 356 356 358 0 359 356 353 354 356 354 349 343 339 339
149 161 178 195 201 199 197 202 205 202 183 121 99 98 108 126 140 144 143 143 144 146 148 148 147 146 146 146 148 154 162 170 174 178 183 188 189 193 202 212 220 231 251 273 281 270 261 272 290 296 291 278 285 292 294 303 317 326 332 339 342 343 346 350 353 355 357 357 358 359 358 357 356 357 359 358 355 354 355 356 354 349 343 340 339
146 154 162 167 173 178 182 186 190 191 178 146 122 109 109 115 121 125 130 133 137 140 142 142 144 146 149 153 157 164 172 179 183 187 193 196 196 199 203 208 221 247 269 281 275 255 247 262 282 291 294 282 274 284 294 306 320 327 331 336 339 341 344 347 350 352 353 354 356 358 357 356 355 355 355 355 355 355 355 355 353 349 345 340 338
133 133 134 136 142 157 173 182 189 195 189 168 144 128 126 128 128 128 131 132 135 138 141 142 146 150 155 160 167 174 181 188 193 195 194 189 187 190 196 212 244 268 278 275 256 236 236 258 278 273 266 278 286 293 300 309 319 325 330 335 339 344 348 348 348 350 350 351 354 356 355 355 354 352 351 352 354 356 356 354 353 352 348 342 339
121 116 107 99 103 120 143 163 176 181 178 168 154 141 138 137 134 132 131 130 131 136 141 145 151 156 161 168 176 183 188 192 191 187 184 183 188 198 217 244 262 271 269 252 230 221 228 247 237 213 248 284 298 303 304 309 317 324 330 336 343 350 353 352 349 348 348 349 351 353 354 354 352 349 348 349 353 356 356 355 355 355 352 346 341
112 98 83 84 97 107 114 127 139 147 151 154 154 152 148 145 144 146 145 140 134 132 135 138 140 143 148 153 156 161 167 170 174 180 187 196 212 231 249 258 258 256 246 226 210 204 208 207 198 212 253 286 302 307 304 306 316 325 332 338 347 356 358 356 352 349 347 347 347 349 352 353 351 347 346 348 351 354 355 356 356 356 352 348 343
96 81 77 90 103 106 102 104 109 113 116 122 126 128 130 133 136 139 137 132 126 124 125 127 128 130 134 138 143 151 161 170 182 198 212 226 240 250 254 251 245 241 232 211 190 179 181 195 205 229 265 291 304 305 303 308 316 324 331 337 348 357 360 357 354 350 347 344 344 346 350 352 351 348 347 348 349 351 352 354 356 356 353 349 345
92 83 84 93 101 101 100 102 106 107 106 107 107 108 111 116 119 120 120 121 121 121 119 120 123 128 134 140 150 162 174 187 203 219 230 237 241 242 240 235 235 234 216 177 158 157 172 185 202 241 281 301 306 304 305 309 314 321 326 333 343 352 356 356 355 352 348 345 343 344 346 350 351 350 348 347 348 350 350 351 354 355 354 350 347
96 92 91 93 96 98 102 109 113 113 111 110 109 109 111 111 111 113 115 117 119 119 119 120 125 133 141 152 168 182 194 207 219 225 228 226 223 218 214 209 201 179 156 145 145 155 164 164 171 218 268 292 299 301 305 308 312 316 321 326 334 343 347 349 352 352 350 347 343 341 343 347 350 351 350 348 348 348 349 350 352 354 354 352 349
Height
1519 1521 1523 1525 1527 1530 1532 1534 1535 1537 1538 1539 1541 1542 1544 1545 1547 1549 1550 1551 1552 1553 1554 1555 1555 1556 1556 1556 1556 1556 1556 1556 1555 1556 1556 1556 1557 1557 1558 1558 1559 1559 1559 1560 1560 1561 1561 1562 1562 1562 1561 1561 1561 1561 1562 1562 1563 1563 1564 1564 1564 1564 1565 1565 1565 1566 1566 1566 1565 1565 1564 1564 1564 1563 1563 1562 1562 1561 1561 1560 1559 1559 1558 1557 1556
1519 1520 1522 1523 1526 1528 1531 1532 1534 1536 1537 1538 1540 1541 1543 1544 1546 1548 1549 1550 1551 1552 1553 1554 1555 1555 1555 1555 1556 1555 1556 1555 1555 1556 1556 1556 1557 1557 1558 1558 1559 1559 1560 1560 1560 1561 1561 1562 1562 1562 1562 1562 1561 1561 1562 1562 1562 1563 1563 1564 1564 1564 1565 1565 1565 1565 1565 1565 1565 1565 1564 1564 1563 1563 1562 1561 1560 1560 1559 1559 1558 1557 1556 1555 1554
1517 1518 1520 1522 1524 1527 1529 1531 1532 1534 1535 1537 1538 1540 1541 1543 1544 1546 1548 1549 1551 1551 1552 1553 1553 1554 1554 1554 1555 1555 1555 1555 1555 1555 1555 1556 1556 1557 1557 1558 1558 1559 1559 1560 1560 1560 1561 1561 1562 1562 1562 1561 1561 1561 1561 1562 1562 1562 1562 1563 1563 1564 1564 1564 1565 1565 1565 1565 1564 1564 1564 1563 1563 1562 1561 1560 1559 1559 1558 1557 1556 1556 1555 1554 1552
1515 1517 1518 1520 1522 1525 1527 1529 1531 1533 1534 1535 1537 1539 1540 1542 1543 1545 1547 1548 1550 1551 1551 1552 1552 1553 1553 1554 1554 1554 1554 1554 1554 1555 1555 1555 1556 1556 1557 1557 1557 1558 1558 1558 1559 1559 1560 1560 1561 1561 1561 1561 1561 1561 1561 1561 1561 1562 1562 1562 1563 1563 1563 1563 1564 1564 1564 1563 1563 1563 1562 1562 1561 1561 1560 1559 1559 1558 1557 1556 1555 1554 1553 1552 1551
1515 1516 1517 1519 1521 1524 1526 1528 1530 1531 1533 1534 1536 1538 1539 1541 1542 1544 1545 1547 1548 1549 1550 1551 1551 1552 1552 1553 1553 1553 1553 1553 1553 1553 1554 1554 1554 1555 1556 1556 1556 1557 1557 1557 1558 1558 1558 1559 1559 1560 1560 1560 1560 1560 1560 1560 1560 1561 1561 1561 1562 1562 1562 1562 1563 1563 1562 1562 1562 1561 1560 1560 1559 1559 1559 1558 1557 1556 1555 1555 1554 1553 1551 1550 1549
1515 1516 1517 1519 1521 1523 1525 1527 1529 1530 1532 1533 1535 1537 1538 1540 1541 1543 1544 1545 1547 1548 1548 1549 1550 1550 1551 1551 1551 1551 1551 1551 1551 1552 1552 1552 1553 1553 1554 1555 1555 1555 1556 1556 1556 1557 1557 1557 1558 1559 1559 1559 1560 1560 1560 1559 1559 1560 1560 1560 1560 1561 1561 1561 1561 1561 1561 1561 1560 1559 1559 1558 1557 1557 1556 1556 1555 1554 1553 1552 1551 1550 1549 1548 1546
1514 1516 1517 1519 1521 1522 1524 1526 1528 1529 1531 1532 1534 1536 1537 1539 1540 1541 1542 1543 1545 1546 1547 1547 1548 1549 1549 1549 1550 1550 1549 1550 1550 1550 1550 1550 1551 1551 1552 1553 1553 1553 1554 1554 1554 1555 1555 1556 1556 1557 1557 1558 1558 1558 1558 1558 1558 1558 1559 1559 1559 1559 1559 1559 1559 1560 1559 1559 1559 1558 1557 1557 1556 1555 1554 1554 1553 1552 1551 1550 1549 1547 1546 1545 1543
1515 1516 1518 1519 1521 1522 1523 1525 1527 1528 1530 1531 1533 1535 1537 1538 1539 1540 1541 1542 1543 1544 1545 1545 1546 1547 1548 1548 1548 1548 1548 1548 1548 1548 1548 1548 1548 1548 1549 1550 1551 1551 1552 1552 1552 1553 1553 1553 1553 1554 1555 1556 1556 1556 1556 1556 1556 1556 1557 1557 1557 1557 1557 1557 1558 1558 1557 1557 1557 1557 1556 1555 1555 1554 1553 1552 1551 1550 1549 1547 1546 1545 1543 1542 1540
1516 1517 1519 1520 1521 1522 1523 1525 1526 1527 1529 1531 1532 1533 1535 1536 1537 1538 1539 1540 1541 1542 1542 1543 1544 1545 1546 1546 1546 1546 1545 1545 1545 1545 1545 1546 1546 1546 1547 1548 1549 1549 1549 1550 1550 1550 1550 1550 1550 1551 1552 1553 1553 1553 1554 1554 1554 1554 1555 1555 1555 1555 1555 1555 1555 1555 1556 1556 1555 1555 1554 1553 1553 1552 1551 1550 1549 1547 1546 1545 1543 1542 1540 1539 1537
1517 1518 1519 1520 1521 1522 1523 1524 1526 1527 1529 1530 1531 1532 1533 1534 1535 1536 1537 1538 1539 1540 1541 1542 1542 1543 1544 1544 1544 1544 1543 1543 1543 1543 1543 1544 1544 1545 1545 1546 1547 1547 1547 1548 1548 1548 1548 1548 1548 1548 1549 1550 1550 1550 1550 1551 1552 1552 1553 1553 1553 1553 1553 1553 1553 1553 1554 1554 1553 1553 1553 1552 1551 1550 1549 1547 1546 1545 1543 1542 1541 1539 1537 1536 1535
1517 1518 1519 1520 1522 1523 1524 1525 1526 1527 1528 1529 1530 1531 1532 1533 1534 1535 1536 1537 1538 1538 1539 1540 1540 1541 1542 1542 1542 1542 1542 1542 1542 1542 1542 1543 1543 1544 1544 1544 1545 1545 1546 1546 1546 1546 1546 1546 1546 1546 1546 1546 1547 1547 1547 1549 1549 1550 1551 1551 1551 1551 1552 1552 1552 1552 1552 1551 1551 1551 1551 1550 1549 1548 1546 1545 1543 1542 1541 1539 1538 1536 1535 1533 1532
1517 1518 1520 1521 1522 1523 1524 1525 1526 1527 1528 1529 1530 1530 1531 1532 1533 1533 1534 1535 1536 1537 1538 1538 1539 1539 1540 1540 1540 1541 1541 1541 1541 1541 1542 1542 1542 1543 1543 1543 1543 1544 1544 1544 1544 1544 1544 1544 1544 1544 1544 1544 1544 1544 1545 1546 1547 1547 1548 1548 1549 1549 1550 1550 1550 1550 1550 1549 1549 1549 1548 1548 1546 1545 1544 1542 1541 1539 1538 1537 1535 1533 1532 1530 1529
1519 1520 1521 1522 1523 1524 1524 1525 1526 1527 1528 1529 1530 1530 1530 1531 1532 1532 1533 1534 1535 1536 1537 1537 1538 1538 1539 1539 1539 1539 1540 1540 1540 1540 1541 1541 1541 1541 1542 1542 1542 1543 1543 1543 1543 1543 1543 1543 1542 1542 1541 1541 1542 1542 1543 1544 1544 1545 1545 1546 1547 1547 1548 1548 1548 1548 1547 1547 1546 1546 1545 1545 1544 1542 1541 1539 1538 1536 1535 1534 1532 1530 1529 1527 1526
1521 1522 1523 1524 1524 1525 1525 1526 1527 1528 1529 1529 1530 1530 1531 1531 1532 1533 1533 1534 1535 1536 1536 1536 1537 1537 1537 1537 1537 1538 1538 1538 1538 1539 1539 1539 1540 1540 1540 1541 1541 1542 1542 1542 1541 1541 1541 1541 1541 1540 1540 1540 1540 1541 1541 1542 1542 1543 1544 1545 1545 1546 1546 1546 1546 1545 1545 1544 1543 1543 1542 1542 1541 1539 1537 1536 1535 1534 1532 1531 1529 1527 1525 1523 1522
1522 1522 1523 1524 1525 1526 1527 1527 1528 1529 1529 1530 1530 1531 1531 1532 1532 1533 1534 1534 1535 1535 1535 1536 1536 1536 1536 1536 1536 1536 1536 1536 1536 1537 1537 1538 1538 1539 1539 1540 1540 1540 1540 1540 1540 1540 1540 1539 1539 1539 1539 1539 1539 1540 1540 1540 1541 1542 1543 1544 1544 1544 1544 1544 1543 1543 1542 1542 1541 1540 1539 1539 1537 1535 1534 1532 1531 1530 1528 1527 1525 1523 1521 1519 1518
1523 1523 1523 1524 1525 1526 1527 1527 1528 1529 1530 1530 1531 1531 1531 1532 1532 1533 1533 1534 1534 1534 1534 1534 1534 1534 1534 1534 1534 1534 1534 1534 1535 1535 1536 1536 1537 1538 1538 1538 1539 1539 1539 1539 1539 1539 1538 1538 1538 1538 1538 1538 1538 1539 1539 1540 1541 1542 1542 1543 1543 1542 1542 1541 1541 1540 1540 1539 1538 1538 1536 1535 1534 1532 1531 1529 1528 1526 1524 1523 1521 1520 1518 1516 1515
1522 1523 1523 1524 1525 1527 1527 1528 1528 1529 1530 1530 1531 1531 1531 1531 1531 1532 1532 1532 1533 1533 1533 1533 1533 1533 1533 1533 1533 1533 1533 1533 1534 1534 1534 1535 1536 1536 1537 1537 1537 1537 1537 1537 1537 1537 1537 1537 1537 1537 1537 1537 1538 1538 1539 1540 1541 1541 1541 1541 1541 1541 1540 1539 1538 1538 1537 1537 1536 1535 1534 1532 1531 1529 1528 1526 1525 1523 1522 1520 1519 1517 1515 1514 1513
1522 1523 1523 1524 1525 1527 1528 1528 1529 1529 1530 1530 1530 1531 1531 1531 1531 1531 1531 1531 1531 1531 1532 1532 1532 1532 1532 1532 1533 1533 1533 1533 1533 1533 1533 1534 1534 1535 1535 1536 1536 1536 1536 1536 1536 1536 1536 1536 1536 1536 1537 1537 1538 1538 1539 1540 1540 1540 1540 1540 1539 1538 1538 1537 1536 1536 1535 1534 1533 1532 1531 1529 1528 1527 1525 1524 1522 1520 1519 1518 1516 1515 1513 1512 1510
1521 1523 1523 1524 1525 1526 1526 1527 1528 1528 1529 1529 1530 1530 1530 1530 1530 1529 1530 1530 1530 1530 1530 1531 1531 1531 1531 1531 1531 1532 1532 1532 1532 1532 1532 1533 1533 1533 1534 1534 1535 1535 1535 1535 1535 1535 1536 1536 1536 1536 1536 1537 1538 1538 1538 1539 1539 1539 1538 1538 1537 1536 1535 1535 1534 1533 1532 1531 1530 1529 1528 1527 1525 1524 1523 1521 1520 1518 1517 1515 1514 1512 1510 1509 1508
1520 1521 1522 1522 1523 1524 1524 1524 1525 1525 1526 1527 1527 1528 1528 1528 1528 1528 1528 1528 1528 1529 1529 1529 1529 1530 1530 1530 1530 1531 1531 1531 1531 1531 1531 1531 1532 1532 1533 1533 1533 1534 1534 1534 1535 1535 1535 1535 1536 1536 1536 1536 1537 1537 1537 1537 1537 1537 1536 1536 1535 1534 1533 1532 1532 1531 1530 1529 1528 1527 1526 1524 1523 1522 1520 1519 1517 1516 1514 1513 1511 1509 1508 1506 1505
1518 1519 1520 1520 1521 1521 1521 1522 1522 1523 1524 1524 1525 1525 1526 1526 1526 1526 1526 1527 1527 1527 1528 1528 1528 1529 1529 1529 1530 1530 1530 1530 1530 1530 1530 1530 1531 1531 1531 1532 1532 1532 1533 1534 1534 1534 1534 1535 1535 1535 1535 1535 1535 1535 1535 1535 1535 1534 1534 1533 1533 1532 1531 1530 1529 1528 1527 1526 1525 1525 1523 1522 1521 1519 1518 1516 1515 1513 1512 1510 1508 1506 1505 1503 1502
1516 1517 1518 1518 1519 1519 1519 1520 1521 1521 1522 1522 1523 1524 1524 1524 1524 1525 1525 1526 1526 1527 1527 1527 1527 1528 1528 1529 1529 1529 1529 1529 1529 1529 1529 1529 1530 1530 1530 1531 1531 1531 1532 1532 1533 1533 1533 1533 1533 1533 1533 1533 1533 1533 1532 1532 1532 1532 1531 1531 1530 1529 1528 1527 1526 1526 1525 1524 1523 1522 1521 1519 1518 1516 1515 1513 1512 1510 1508 1506 1505 1503 1502 1500 1498
1514 1515 1515 1516 1516 1517 1517 1518 1519 1519 1520 1521 1521 1522 1522 1523 1523 1524 1524 1524 1525 1525 1526 1526 1526 1526 1527 1527 1527 1528 1528 1528 1528 1528 1528 1528 1528 1529 1529 1529 1530 1530 1531 1531 1531 1531 1531 1531 1531 1531 1531 1530 1530 1530 1530 1530 1529 1529 1529 1528 1527 1527 1526 1525 1524 1523 1522 1521 1520 1519 1518 1516 1515 1513 1512 1510 1508 1507 1504 1503 1501 1500 1498 1496 1495
1512 1512 1513 1513 1514 1515 1515 1516 1517 1517 1518 1519 1519 1520 1520 1521 1521 1522 1522 1523 1523 1524 1524 1524 1525 1525 1525 1526 1526 1526 1526 1526 1526 1526 1527 1527 1527 1527 1527 1528 1528 1529 1529 1529 1529 1529 1529 1529 1529 1529 1528 1528 1528 1528 1527 1527 1527 1526 1526 1525 1525 1524 1524 1523 1522 1521 1520 1519 1517 1516 1515 1513 1512 1510 1508 1506 1505 1502 1500 1498 1497 1496 1494 1492 1490
1509 1510 1510 1511 1512 1512 1513 1513 1514 1515 1516 1516 1517 1517 1518 1519 1519 1520 1520 1521 1521 1522 1522 1523 1523 1523 1523 1524 1524 1524 1524 1524 1525 1525 1525 1525 1525 1525 1526 1526 1527 1527 1527 1527 1527 1527 1527 1527 1527 1526 1526 1526 1526 1526 1526 1525 1525 1524 1524 1523 1523 1522 1521 1520 1519 1518 1517 1516 1515 1514 1512 1510 1508 1506 1505 1503 1501 1499 1497 1495 1493 1492 1490 1488 1487
1507 1507 1508 1508 1509 1509 1510 1510 1511 1512 1513 1513 1514 1514 1515 1516 1516 1517 1518 1518 1519 1519 1520 1520 1521 1521 1521 1522 1522 1522 1522 1522 1523 1523 1523 1523 1523 1524 1524 1524 1525 1525 1525 1525 1525 1525 1525 1525 1525 1525 1524 1524 1524 1524 1524 1524 1523 1523 1522 1522 1521 1520 1519 1518 1517 1516 1515 1514 1512 1511 1509 1507 1505 1503 1501 1500 1498 1496 1494 1492 1491 1489 1488 1486 1484
1504 1504 1504 1505 1505 1506 1506 1507 1508 1508 1509 1510 1511 1511 1512 1513 1513 1514 1515 1515 1516 1517 1517 1518 1518 1519 1519 1519 1519 1520 1520 1520 1521 1521 1521 1521 1522 1522 1522 1522 1523 1523 1523 1523 1523 1523 1523 1523 1523 1523 1523 1523 1523 1522 1522 1522 1522 1521 1521 1520 1519 1518 1517 1516 1515 1514 1512 1511 1509 1508 1506 1504 1502 1501 1499 1497 1496 1494 1492 1490 1489 1488 1486 1485 1483
1500 1501 1501 1502 1502 1502 1503 1503 1504 1505 1506 1507 1507 1508 1509 1509 1510 1510 1511 1512 1513 1514 1514 1515 1515 1516 1516 1517 1517 1517 1517 1518 1518 1519 1519 1519 1520 1520 1520 1520 1521 1521 1521 1521 1521 1521 1521 1521 1521 1521 1521 1521 1521 1521 1521 1521 1520 1520 1519 1519 1518 1516 1515 1514 1513 1511 1510 1508 1507 1505 1503 1502 1500 1499 1497 1496 1494 1493 1491 1489 1488 1486 1485 1483 1481
1496 1497 1498 1498 1499 1499 1499 1500 1500 1501 1502 1503 1504 1505 1505 1506 1507 1507 1508 1509 1510 1510 1511 1511 1512 1513 1514 1514 1514 1514 1515 1515 1516 1517 1517 1517 1517 1518 1518 1518 1519 1519 1519 1519 1519 1520 1520 1520 1520 1520 1520 1520 1520 1520 1520 1520 1519 1519 1518 1517 1516 1515 1514 1513 1511 1510 1508 1506 1505 1503 1502 1500 1499 1497 1496 1494 1493 1491 1490 1488 1486 1484 1483 1481 1479
1492 1492 1493 1494 1495 1496 1496 1497 1497 1498 1498 1499 1500 1501 1502 1503 1504 1504 1505 1506 1507 1507 1508 1508 1509 1510 1510 1511 1512 1512 1512 1513 1514 1514 1514 1515 1515 1515 1516 1516 1517 1517 1517 1518 1518 1518 1518 1519 1519 1519 1519 1519 1519 1519 1519 1519 1518 1518 1517 1516 1515 1514 1512 1511 1510 1508 1506 1505 1503 1501 1500 1499 1497 1496 1494 1492 1491 1489 1488 1486 1484 1482 1480 1479 1477
1488 1488 1489 1490 1491 1492 1493 1493 1494 1494 1495 1496 1496 1497 1498 1500 1501 1501 1502 1503 1504 1504 1505 1505 1506 1507 1507 1508 1509 1509 1510 1510 1511 1511 1511 1512 1513 1513 1514 1515 1515 1515 1516 1516 1516 1517 1517 1518 1518 1518 1518 1518 1518 1518 1518 1518 1517 1517 1516 1515 1513 1512 1511 1510 1508 1506 1505 1503 1502 1500 1498 1497 1495 1494 1492 1490 1488 1487 1485 1484 1482 1480 1479 1477 1475
1484 1485 1485 1486 1486 1487 1488 1489 1490 1491 1491 1492 1493 1494 1495 1496 1497 1498 1499 1500 1500 1501 1502 1502 1503 1503 1504 1505 1506 1506 1507 1508 1508 1509 1509 1510 1510 1511 1512 1513 1513 1514 1514 1515 1515 1515 1516 1517 1517 1517 1517 1517 1517 1517 1517 1517 1516 1515 1514 1513 1512 1511 1509 1508 1506 1505 1503 1502 1500 1499 1497 1496 1494 1492 1490 1488 1487 1485 1483 1482 1480 1478 1477 1475 1473
1480 1481 1481 1482 1482 1483 1484 1485 1486 1486 1487 1488 1489 1491 1492 1492 1493 1495 1495 1496 1497 1497 1498 1498 1499 1500 1501 1502 1502 1503 1504 1504 1505 1506 1507 1507 1508 1509 1510 1511 1512 1512 1513 1513 1514 1514 1515 1516 1516 1516 1516 1516 1516 1516 1516 1515 1515 1514 1513 1512 1511 1510 1508 1507 1505 1504 1502 1501 1499 1497 1496 1494 1492 1491 1489 1487 1485 1483 1481 1480 1478 1477 1475 1473 1471
1476 1477 1478 1478 1478 1479 1480 1481 1481 1482 1483 1484 1485 1486 1487 1488 1490 1491 1492 1493 1493 1494 1494 1495 1495 1496 1497 1498 1499 1499 1500 1501 1502 1503 1504 1505 1506 1507 1508 1509 1510 1511 1512 1512 1513 1514 1514 1515 1515 1515 1515 1515 1515 1515 1514 1514 1513 1513 1512 1511 1510 1508 1507 1505 1504 1503 1502 1500 1498 1496 1494 1493 1491 1489 1487 1485 1484 1482 1480 1479 1477 1475 1473 1471 1470
1472 1473 1474 1475 1475 1475 1476 1477 1478 1479 1479 1480 1481 1482 1483 1484 1485 1487 1488 1489 1489 1490 1490 1491 1492 1493 1493 1494 1495 1495 1496 1497 1498 1499 1501 1502 1504 1505 1506 1507 1509 1510 1510 1511 1512 1513 1513 1513 1513 1514 1514 1514 1514 1514 1513 1513 1512 1512 1511 1510 1509 1508 1506 1504 1503 1502 1500 1499 1497 1495 1493 1491 1490 1488 1486 1484 1482 1480 1479 1477 1475 1473 1472 1470 1468
1468 1470 1471 1472 1473 1473 1473 1474 1475 1476 1477 1477 1478 1479 1479 1481 1482 1483 1484 1485 1486 1486 1487 1487 1488 1489 1489 1490 1490 1491 1492 1493 1495 1496 1498 1500 1501 1503 1504 1506 1507 1508 1509 1510 1511 1512 1512 1512 1512 1512 1512 1513 1513 1513 1512 1512 1511 1510 1510 1509 1508 1507 1505 1504 1502 1501 1499 1497 1495 1494 1492 1490 1488 1486 1484 1482 1481 1479 1477 1475 1473 1472 1470 1468 1466
1464 1466 1468 1470 1470 1471 1471 1471 1472 1473 1474 1474 1475 1476 1476 1477 1478 1479 1480 1481 1482 1482 1483 1483 1484 1484 1485 1485 1486 1487 1488 1490 1492 1494 1496 1498 1500 1502 1504 1505 1506 1507 1508 1509 1510 1510 1511 1511 1511 1511 1511 1512 1512 1511 1511 1511 1510 1510 1509 1508 1507 1506 1505 1503 1502 1500 1498 1496 1494 1492 1491 1489 1487 1485 1483 1480 1479 1477 1475 1473 1471 1470 1468 1467 1464
1460 1462 1465 1467 1468 1469 1469 1469 1469 1470 1470 1471 1471 1472 1473 1474 1475 1476 1476 1477 1478 1478 1479 1480 1480 1481 1482 1482 1483 1484 1486 1488 1490 1492 1494 1496 1499 1501 1503 1504 1506 1507 1508 1508 1509 1509 1509 1510 1510 1510 1510 1511 1511 1510 1510 1510 1509 1509 1508 1507 1506 1506 1504 1503 1501 1499 1497 1495 1493 1491 1490 1488 1486 1484 1481 1479 1477 1475 1473 1471 1470 1468 1466 1465 1463
1457 1461 1464 1465 1466 1467 1467 1467 1467 1467 1468 1468 1469 1470 1471 1471 1471 1472 1473 1473 1474 1475 1476 1477 1478 1479 1479 1480 1482 1483 1484 1485 1487 1489 1492 1495 1498 1500 1502 1503 1505 1506 1507 1507 1508 1508 1508 1509 1509 1509 1509 1509 1509 1509 1509 1509 1508 1508 1507 1507 1506 1505 1503 1502 1500 1498 1496 1494 1492 1491 1489 1487 1485 1483 1480 1478 1475 1473 1471 1469 1468 1466 1465 1463 1461
1456 1459 1462 1463 1464 1465 1465 1466 1466 1466 1466 1467 1467 1467 1468 1468 1468 1469 1469 1470 1472 1473 1474 1475 1476 1477 1478 1479 1480 1482 1483 1484 1486 1489 1492 1495 1497 1499 1501 1503 1504 1505 1505 1506 1507 1507 1507 1508 1508 1508 1508 1508 1508 1508 1508 1507 1507 1507 1506 1506 1505 1504 1503 1501 1500 1498 1496 1494 1492 1489 1488 1486 1483 1481 1479 1476 1474 1472 1470 1468 1467 1465 1463 1461 1460
1455 1458 1460 1462 1463 1463 1464 1464 1465 1465 1465 1465 1465 1465 1465 1465 1465 1466 1467 1468 1470 1471 1472 1473 1475 1476 1477 1479 1480 1482 1484 1486 1488 1491 1493 1495 1497 1499 1501 1502 1503 1504 1505 1505 1506 1506 1506 1507 1507 1507 1507 1507 1507 1507 1506 1506 1506 1506 1506 1505 1504 1503 1502 1500 1499 1497 1495 1493 1491 1489 1487 1485 1482 1480 1477 1475 1473 1471 1469 1467 1465 1464 1462 1460 1458
1455 1457 1459 1460 1461 1462 1463 1463 1463 1464 1464 1464 1464 1463 1462 1462 1463 1464 1466 1467 1468 1470 1471 1473 1474 1476 1478 1479 1481 1483 1486 1488 1490 1492 1494 1496 1497 1499 1500 1501 1502 1503 1504 1504 1505 1505 1505 1505 1505 1505 1506 1506 1506 1505 1505 1505 1505 1505 1505 1504 1503 1502 1500 1499 1498 1496 1494 1492 1490 1488 1486 1484 1481 1479 1476 1474 1472 1469 1467 1465 1464 1462 1461 1459 1457
1455 1457 1459 1460 1461 1461 1462 1462 1462 1463 1463 1463 1463 1462 1461 1461 1462 1463 1465 1466 1468 1470 1472 1473 1475 1477 1479 1481 1483 1485 1487 1489 1491 1493 1494 1496 1497 1498 1499 1500 1501 1502 1503 1503 1504 1504 1504 1504 1504 1504 1504 1504 1504 1504 1504 1504 1504 1504 1503 1503 1502 1501 1499 1498 1497 1495 1493 1491 1489 1487 1485 1482 1480 1478 1475 1473 1471 1468 1466 1464 1462 1461 1459 1458 1456
1456 1457 1458 1459 1460 1460 1461 1461 1462 1462 1463 1464 1463 1462 1462 1462 1463 1464 1466 1467 1470 1472 1474 1475 1477 1478 1480 1482 1484 1486 1488 1490 1491 1493 1494 1495 1496 1497 1498 1499 1500 1501 1502 1502 1502 1502 1502 1503 1503 1503 1503 1503 1502 1503 1503 1503 1503 1502 1502 1501 1500 1499 1498 1497 1495 1494 1492 1490 1488 1486 1484 1481 1479 1477 1475 1472 1470 1467 1465 1463 1461 1460 1458 1457 1455
1456 1458 1458 1459 1460 1460 1461 1461 1462 1463 1464 1465 1465 1465 1465 1465 1466 1467 1468 1470 1472 1474 1475 1477 1479 1480 1482 1483 1485 1487 1488 1490 1491 1492 1494 1494 1495 1496 1497 1498 1499 1500 1500 1501 1501 1501 1501 1502 1502 1502 1501 1501 1501 1501 1501 1501 1501 1501 1501 1500 1499 1498 1497 1495 1494 1492 1491 1489 1487 1485 1483 1481 1478 1476 1474 1472 1469 1466 1464 1462 1460 1459 1457 1456 1454
1457 1458 1459 1460 1460 1461 1461 1462 1463 1464 1465 1466 1466 1467 1468 1468 1469 1470 1471 1473 1474 1476 1477 1479 1480 1482 1483 1485 1486 1487 1489 1490 1491 1492 1493 1494 1495 1496 1497 1498 1498 1499 1499 1499 1499 1500 1500 1500 1500 1500 1500 1500 1500 1500 1500 1500 1500 1500 1500 1499 1498 1497 1496 1494 1493 1491 1490 1488 1486 1484 1482 1480 1478 1476 1473 1471 1469 1466 1463 1461 1460 1458 1456 1455 1453
1459 1460 1461 1461 1461 1461 1462 1463 1464 1465 1466 1467 1468 1468 1469 1470 1471 1472 1473 1475 1476 1477 1479 1480 1481 1482 1484 1485 1486 1487 1489 1490 1491 1492 1492 1493 1494 1495 1496 1496 1497 1497 1498 1498 1498 1499 1499 1499 1499 1499 1499 1499 1499 1499 1499 1499 1499 1499 1498 1498 1497 1496 1494 1493 1492 1490 1489 1487 1485 1483 1482 1479 1477 1475 1473 1470 1468 1465 1463 1461 1459 1457 1456 1454 1453
1461 1462 1462 1462 1462 1463 1463 1464 1465 1466 1466 1467 1468 1469 1470 1471 1473 1474 1475 1476 1477 1478 1480 1481 1482 1483 1484 1485 1486 1487 1488 1489 1490 1491 1492 1493 1493 1494 1494 1495 1496 1496 1496 1497 1497 1497 1498 1498 1498 1498 1498 1498 1498 1498 1498 1499 1498 1498 1497 1497 1496 1494 1493 1492 1490 1489 1488 1486 1484 1483 1481 1479 1477 1474 1472 1470 1467 1465 1463 1460 1458 1457 1455 1454 1452
1463 1463 1463 1464 1464 1465 1465 1466 1467 1467 1468 1469 1469 1470 1471 1472 1474 1475 1476 1477 1478 1479 1480 1481 1482 1483 1484 1485 1486 1487 1488 1489 1490 1490 1491 1492 1492 1493 1493 1494 1494 1495 1495 1495 1496 1496 1496 1497 1497 1497 1497 1498 1498 1498 1498 1498 1497 1497 1496 1496 1494 1493 1492 1491 1490 1488 1487 1485 1484 1482 1480 1478 1476 1474 1472 1469 1467 1465 1463 1460 1458 1456 1455 1453 1452
1465 1465 1466 1466 1466 1467 1468 1468 1469 1469 1470 1470 1471 1472 1473 1474 1475 1476 1477 1478 1479 1480 1481 1482 1483 1484 1484 1485 1486 1487 1487 1488 1489 1489 1490 1490 1491 1491 1492 1493 1493 1494 1494 1494 1495 1495 1496 1496 1496 1497 1497 1497 1497 1497 1497 1497 1496 1496 1495 1494 1493 1492 1491 1490 1489 1488 1486 1485 1483 1481 1480 1478 1476 1474 1471 1469 1467 1465 1462 1460 1458 1456 1454 1453 1451
1467 1467 1467 1468 1468 1469 1469 1470 1470 1471 1471 1472 1473 1473 1474 1475 1476 1477 1478 1479 1480 1480 1481 1482 1483 1484 1484 1485 1485 1486 1487 1487 1488 1488 1489 1489 1490 1490 1491 1492 1492 1493 1493 1494 1494 1495 1495 1496 1496 1496 1496 1496 1496 1496 1496 1496 1495 1495 1494 1493 1492 1491 1491 1490 1488 1487 1485 1484 1482 1481 1479 1477 1475 1473 1471 1469 1466 1464 1462 1460 1458 1456 1454 1453 1451